| time (UTC) | temp F | wind direction | speed MPH | gust MPH | rain 1hr in | rain 24hr in | rain mn in | humidity % | barometer mb |
| 20260505071558 | 48 | 171 | 0.0 | 0.0 | 0.00 | 0.00 | 0.00 | 51 | 1001.2 |
| 20260505070056 | 49 | 227 | 0.0 | 0.0 | 0.00 | 0.00 | 0.00 | 50 | 1000.8 |
| 20260505064553 | 49 | 188 | 0.0 | 0.0 | 0.00 | 0.00 | 0.00 | 48 | 1000.7 |
| 20260505063056 | 50 | 128 | 1.0 | 0.0 | 0.00 | 0.00 | 0.00 | 47 | 1000.3 |
| 20260505061616 | 50 | 170 | 1.0 | 0.0 | 0.00 | 0.00 | 0.00 | 46 | 1000.2 |
| 20260505060051 | 51 | 259 | 1.0 | 0.0 | 0.00 | 0.00 | 0.00 | 47 | 1000.1 |
| 20260505054555 | 52 | 104 | 0.0 | 0.0 | 0.00 | 0.00 | 0.00 | 50 | 1000.0 |
| 20260505053039 | 53 | 161 | 0.0 | 0.0 | 0.00 | 0.00 | 0.00 | 49 | 999.8 |
| 20260505051536 | 53 | 125 | 0.0 | 0.0 | 0.00 | 0.00 | 0.00 | 49 | 999.5 |
| 20260505041525 | 56 | 43 | 0.0 | 0.0 | 0.00 | 0.00 | 0.00 | 44 | 998.4 |
| 20260505040023 | 57 | 112 | 0.0 | 0.0 | 0.00 | 0.00 | 0.00 | 44 | 998.5 |
| 20260505034521 | 57 | 137 | 1.0 | 0.0 | 0.00 | 0.00 | 0.00 | 43 | 998.2 |
| 20260505033031 | 58 | 138 | 0.0 | 0.0 | 0.00 | 0.00 | 0.00 | 42 | 998.0 |
| 20260505031521 | 58 | 59 | 0.0 | 0.0 | 0.00 | 0.00 | 0.00 | 40 | 997.9 |
| 20260505030020 | 58 | 64 | 0.0 | 0.0 | 0.00 | 0.00 | 0.00 | 39 | 997.7 |
| 20260505024545 | 59 | 68 | 0.0 | 0.0 | 0.00 | 0.00 | 0.00 | 39 | 997.4 |
| 20260505023019 | 60 | 95 | 0.0 | 0.0 | 0.00 | 0.00 | 0.00 | 38 | 996.8 |
| 20260505021536 | 61 | 82 | 0.0 | 0.0 | 0.00 | 0.00 | 0.00 | 37 | 996.2 |
| 20260505020018 | 61 | 130 | 1.0 | 0.0 | 0.00 | 0.00 | 0.00 | 37 | 995.5 |
| 20260505014522 | 62 | 145 | 0.0 | 0.0 | 0.00 | 0.00 | 0.00 | 37 | 995.6 |
| 20260505013016 | 63 | 105 | 1.0 | 0.0 | 0.00 | 0.00 | 0.00 | 36 | 995.7 |
| 20260505011518 | 64 | 106 | 1.0 | 0.0 | 0.00 | 0.00 | 0.00 | 35 | 995.5 |
| 20260505010016 | 65 | 109 | 1.0 | 0.0 | 0.00 | 0.00 | 0.00 | 34 | 995.3 |
| 20260505004522 | 66 | 80 | 3.0 | 0.0 | 0.00 | 0.00 | 0.00 | 33 | 994.5 |
| 20260505003014 | 68 | 99 | 2.0 | 0.0 | 0.00 | 0.00 | 0.00 | 33 | 994.1 |
| 20260505001514 | 70 | 101 | 1.0 | 0.0 | 0.00 | 0.00 | 0.00 | 35 | 993.7 |
| 20260505000014 | 72 | 118 | 1.0 | 0.0 | 0.00 | 0.00 | 0.00 | 36 | 993.6 |
| 20260504234512 | 73 | 166 | 2.0 | 0.0 | 0.00 | 0.00 | 0.00 | 35 | 993.3 |
| 20260504233012 | 75 | 115 | 2.0 | 0.0 | 0.00 | 0.00 | 0.00 | 34 | 993.1 |
| 20260504231511 | 76 | 179 | 2.0 | 0.0 | 0.00 | 0.00 | 0.00 | 35 | 992.8 |
| 20260504230011 | 77 | 109 | 2.0 | 0.0 | 0.00 | 0.00 | 0.00 | 35 | 992.6 |
| 20260504224511 | 77 | 126 | 4.0 | 0.0 | 0.00 | 0.00 | 0.00 | 34 | 992.5 |
| 20260504223010 | 78 | 75 | 3.0 | 0.0 | 0.00 | 0.00 | 0.00 | 34 | 992.5 |
| 20260504221509 | 77 | 67 | 4.0 | 0.0 | 0.00 | 0.00 | 0.00 | 32 | 992.3 |
| 20260504220009 | 77 | 63 | 3.0 | 0.0 | 0.00 | 0.00 | 0.00 | 32 | 992.1 |
| 20260504214507 | 78 | 57 | 5.0 | 0.0 | 0.00 | 0.00 | 0.00 | 30 | 992.1 |
| 20260504213007 | 78 | 72 | 4.0 | 0.0 | 0.00 | 0.00 | 0.00 | 32 | 992.1 |
| 20260504211506 | 77 | 73 | 5.0 | 0.0 | 0.00 | 0.00 | 0.00 | 30 | 992.2 |
| 20260504210007 | 77 | 71 | 4.0 | 0.0 | 0.00 | 0.00 | 0.00 | 32 | 992.3 |
| 20260504204512 | 78 | 128 | 4.0 | 0.0 | 0.00 | 0.00 | 0.00 | 32 | 992.4 |
| 20260504203003 | 79 | 82 | 6.0 | 0.0 | 0.00 | 0.00 | 0.00 | 32 | 992.8 |
| 20260504201502 | 78 | 64 | 6.0 | 0.0 | 0.00 | 0.00 | 0.00 | 32 | 992.7 |
| 20260504200111 | 78 | 47 | 5.0 | 0.0 | 0.00 | 0.00 | 0.00 | 35 | 993.0 |
| 20260504194557 | 77 | 84 | 7.0 | 0.0 | 0.00 | 0.00 | 0.00 | 34 | 993.2 |
| 20260504193055 | 78 | 43 | 6.0 | 0.0 | 0.00 | 0.00 | 0.00 | 33 | 993.4 |
| 20260504191554 | 77 | 68 | 7.0 | 0.0 | 0.00 | 0.00 | 0.00 | 34 | 993.6 |
| 20260504190053 | 77 | 71 | 8.0 | 0.0 | 0.00 | 0.00 | 0.00 | 33 | 993.7 |
| 20260504184557 | 77 | 87 | 6.0 | 0.0 | 0.00 | 0.00 | 0.00 | 32 | 993.8 |
| 20260504183048 | 77 | 74 | 6.0 | 0.0 | 0.00 | 0.00 | 0.00 | 33 | 994.0 |
| 20260504181552 | 76 | 56 | 7.0 | 0.0 | 0.00 | 0.00 | 0.00 | 32 | 994.1 |
| 20260504180047 | 76 | 62 | 6.0 | 0.0 | 0.00 | 0.00 | 0.00 | 33 | 994.0 |
| 20260504174548 | 76 | 82 | 6.0 | 0.0 | 0.00 | 0.00 | 0.00 | 31 | 994.0 |
| 20260504173045 | 76 | 98 | 5.0 | 0.0 | 0.00 | 0.00 | 0.00 | 32 | 994.0 |
| 20260504171545 | 76 | 56 | 5.0 | 0.0 | 0.00 | 0.00 | 0.00 | 31 | 994.1 |
| 20260504081536 | 49 | 62 | 0.0 | 0.0 | 0.00 | 0.00 | 0.00 | 70 | 999.5 |